PICARD

Last updated on Thu May 05 2016 07:39:32 GMT+0000 (Coordinated Universal Time)

1 36598U 10028A 16126.19331338 .00000091 00000-0 34626-4 0 9994 2 36598 98.3121 311.0902 0001756 125.9638 234.1714 14.50442928311619

Satellite not in orbit

PICARD